Location: Ernsee
(50.8780°N, 12.0389°E)
Time: 10:00:11
(UTC+00:00)

Cosmos 1703 - Pass Details

Date: 20 January 2020
Orbit: 524 x 541 km, 82.5° (Epoch: 18 February)

Event Time Altitude Azimuth Distance (km) Brightness Sun altitude
Exits shadow 05:02:45 - 352° (N) 1,948 5.9 -18.6°
Reaches altitude 10° 05:03:05 10° 353° (N) 1,812 5.8 -18.6°
Maximum altitude 05:07:04 75° 79° (ENE) 564 3.4 -18.0°
Drops below altitude 10° 05:11:00 10° 165° (SSE) 1,788 6.3 -17.4°
Sets 05:13:08 0° 167° (SSE) 2,671 7.2 -17.0°
